軌道要素
Epoch 2001 Nov. 27.0 TT = JDT 2452240.5
T 2001 Nov. 10.56507 TT Spoto
q 2.7227641 (2000.0) P Q
n 0.10976283 Peri. 54.33577 -0.87888496 -0.45383356
a 4.3201537 Node 98.26224 +0.37545048 -0.84812703
e 0.3697530 Incl. 8.53990 +0.29427565 -0.27334163
P 8.98
From 94 observations 2002 Apr. 1-2020 Apr. 1, mean residual 0".9.
Nongravitational parameters Y1 = +0.03, Y2 = -0.0017, Y3 = -0.0902.
|